TIME,DELAY(SENSOR),PRES,T(CTD),SAL,OXYGEN,RAWTEMP,T(OPTODE),TCPHASE,FLUOR,BETA(BETA700),BETA(BETA412),BETA(BETA440),CDOM,C(CSC),ED(ED411.90),ED(ED443.80),ED(ED489.40),ED(ED554.70),LU(LU412.20),LU(LU443.80),LU(LU489.40),LU(LU555.00),COMP,TILTX,TILTX(TILTY),CHECK
1374421023,5805,497.2900085449219000,16.9951992034912100,36.3558998107910160,204.9483032226562500,188.7774047851562500,16.9866504669189450,32.7708206176757800,57,221,73,72,64,9801,2146957878,2147515318,2147272045,2147460077,2147080256,2146951460,2147656384,2147122916,3057,-2,8,45266
1374421138,5805,486.4599914550781000,17.0911006927490230,36.3744010925293000,206.4454040527343800,185.2259063720703000,17.0937309265136720,32.6356887817382800,56,222,73,71,64,9807,2146956690,2147514176,2147273234,2147461101,2147081554,2146951360,2147655085,2147125293,1641,-1,8,59053
1374421256,5802,475.2200012207031000,17.2411994934082030,36.4048004150390600,209.3383026123047000,180.4049987792968800,17.2391204833984380,32.4059181213378900,56,220,71,70,63,9801,2146958829,2147516169,2147275757,2147458880,2147080950,2146949302,2147654820,2147130715,1367,-1,8,8582
1374421371,5805,464.2799987792969000,17.3481998443603500,36.4255981445312500,210.9640045166015600,177.0668029785156200,17.3398094177246100,32.2695808410644500,57,222,72,72,63,9801,2146958656,2147518244,2147271442,2147458221,2147079798,2146954816,2147652598,2147126290,811,-1,8,52426
1374421486,5802,453.4100036621094000,17.4435005187988280,36.4440002441406250,213.4273071289062500,173.5458984375000000,17.4460201263427730,32.0861015319824200,56,223,72,72,63,9803,2146958418,2147517632,2147270820,2147456640,2147076297,2146952576,2147652050,2147125138,3178,-1,8,54740
1374421604,5807,442.4400024414062500,17.5240001678466800,36.4585990905761700,213.7908020019531200,171.0458984375000000,17.5214500427246100,32.0319595336914060,56,222,73,71,63,9804,2146957522,2147515236,2147273453,2147457545,2147071817,2146954148,2147652352,2147121225,2623,-1,8,33715
1374421731,5806,430.8399963378906000,17.6362991333007800,36.4757995605468750,213.6454925537109400,167.3793945312500000,17.6320896148681640,31.9895992279052730,56,222,74,71,63,9805,2146959616,2147513819,2147269906,2147454336,2147077028,2146953152,2147651693,2147124406,1966,-1,8,42143
1374421848,5805,420.6099853515625000,17.7231998443603500,36.4938011169433600,215.1645050048828000,164.5516967773437500,17.7174301147460940,31.8684406280517580,57,222,73,71,63,9794,2146957184,2147515501,2147269814,2147455286,2147081828,2146954038,2147650889,2147127469,1381,-2,8,47370
1374421987,5808,408.9200134277344000,17.8395004272460940,36.5135993957519500,217.6268005371093800,160.6674041748047000,17.8346805572509770,31.6841106414794920,57,221,73,70,62,9789,2146955657,2147515958,2147270674,2147454363,2147068352,2146954541,2147649801,2147125750,692,-1,8,54169
1374422114,5805,398.3999938964844000,17.8995990753173830,36.5209999084472660,217.1233062744140600,158.5346984863281200,17.8990802764892580,31.6819000244140620,56,222,72,71,62,9789,2146957540,2147518509,2147267931,2147451657,2147082304,2146955145,2147650889,2147125376,3492,-1,8,62770
1374422256,5810,387.1300048828125000,17.9734001159667970,36.5322990417480500,223.0525970458984400,156.1598968505859400,17.9707908630371100,31.3402309417724600,57,224,71,71,63,9791,2146954331,2147515044,2147272292,2147453988,2147075547,2146956105,2147649398,2147127552,1820,-1,8,9815
1374422395,5806,376.3399963378906000,18.0596008300781250,36.5433998107910160,218.9053039550781200,153.4403991699218800,18.0529193878173830,31.5185203552246100,57,223,73,71,62,9794,2146959954,2147515520,2147267565,2147452955,2147074944,2146951149,2147651218,2147125924,1356,-1,9,54252
1374422550,5803,363.1900024414062500,18.2145004272460940,36.5666007995605500,218.7756042480468800,147.8330993652343800,18.2223091125488280,31.4493198394775400,57,223,73,71,62,9783,2146958308,2147516032,2147271835,2147452608,2147073865,2146952109,2147648667,2147125138,259,-2,8,61959
1374422659,5804,352.3500061035156000,18.2579994201660160,36.5657997131347660,216.6855010986328000,146.8267059326172000,18.2527198791503900,31.5454998016357420,57,219,73,72,63,9789,2146959451,2147516361,2147269860,2147454829,2147076809,2146948306,2147646445,2147126656,3058,-2,8,30079
1374422776,5807,340.4700012207031000,18.3570003509521500,36.5774002075195300,216.6450042724609400,143.5957031250000000,18.3503608703613280,31.5038604736328120,56,223,72,71,63,9792,2146957750,2147516827,2147268772,2147451190,2147069293,2146955373,2147646555,2147126875,1715,-1,8,293
1374422879,5801,329.9599914550781000,18.4529991149902340,36.5857009887695300,214.5993041992187500,140.1773986816406200,18.4536800384521500,31.5666999816894530,56,220,72,71,63,9792,2146957888,2147511049,2147269741,2147451794,2147081792,2146955026,2147648109,2147126454,1155,-1,8,42208
1374422994,5805,318.2600097656250000,18.5226993560791000,36.5905990600585940,215.0213012695312500,138.0798034667968800,18.5170993804931640,31.5154304504394530,56,223,72,72,63,9792,2146958793,2147515712,2147269339,2147450386,2147081216,2146957824,2147652050,2147124589,601,-1,8,14651
1374423118,5803,305.9599914550781000,18.5811004638671880,36.5952987670898440,213.8451995849609400,136.1875000000000000,18.5743198394775400,31.5530109405517580,56,223,72,71,63,9788,2146957147,2147516452,2147268214,2147449417,2147080658,2146957549,2147650441,2147125266,2989,-1,8,21833
1374423242,5806,295.7699890136719000,18.6944007873535160,36.6044006347656250,211.7669067382812500,132.9542999267578000,18.6721000671386720,31.6215095520019530,56,224,71,72,62,9787,2146957403,2147518436,2147266834,2147451392,2147079030,2146961965,2147647469,2147125147,2233,-1,8,27072
1374423395,5802,284.6199951171875000,18.7213993072509770,36.5890007019043000,221.4566040039062500,131.4671936035156200,18.7170906066894530,31.0896091461181640,57,223,72,72,62,9794,2146959634,2147511890,2147269348,2147448850,2147082230,2146956251,2147649837,2147124333,1121,-1,8,33373
1374423546,5805,274.2300109863281000,18.8008003234863280,36.5872001647949200,226.5110931396484400,128.6855010986328000,18.8012504577636720,30.7958507537841800,57,222,73,72,62,9790,2146961289,2147512173,2147267757,2147449654,2147084909,2146958646,2147655954,2147127268,994,-1,8,6008
1374423730,5803,262.3399963378906000,19.0389995574951170,36.6076011657714840,222.4022979736328000,120.5422973632812500,19.0477409362792970,30.8951606750488280,56,224,72,71,64,9788,2146958546,2147513408,2147266230,2147446802,2147082313,2146966116,2147649645,2147128859,3305,-2,8,18286
1374423857,5805,251.7400054931640600,19.1830997467041000,36.6045989990234400,220.0110015869140600,116.1808013916015600,19.1798305511474600,30.9594707489013670,57,226,72,73,62,9781,2146959360,2147514240,2147264740,2147450349,2147082349,2146957019,2147651547,2147127414,2947,-1,8,54215
1374423972,5805,241.2700042724609400,19.2530994415283200,36.5982017517089840,225.3625030517578000,113.8001022338867200,19.2519493103027340,30.6556091308593750,56,226,74,70,62,9792,2146957321,2147513581,2147265819,2147448027,2147082459,2146964809,2147658459,2147126052,2974,-1,9,54966
1374424090,5805,230.8300018310547000,19.3859996795654300,36.5984001159668000,228.2521057128906200,109.4848022460937500,19.3827304840087900,30.4549903869628900,58,225,71,72,61,9791,2146956470,2147517833,2147269659,2147445092,2147085156,2146967113,2147660827,2147128118,2570,-1,8,27458
1374424217,5809,219.8500061035156200,19.4727993011474600,36.5966987609863300,232.7438049316406200,106.5119018554687500,19.4728603363037100,30.1971797943115230,58,225,73,72,61,9788,2146956726,2147513453,2147265874,2147446070,2147084992,2146972818,2147667337,2147128841,1717,-1,8,34961
1374424334,5802,209.7599945068359400,19.5683994293212900,36.5987014770507800,235.8087005615234400,103.4336013793945300,19.5662097930908200,30.0106792449951170,60,226,73,72,60,9782,2146958436,2147515245,2147268745,2147449161,2147083977,2146976320,2147672978,2147129581,2199,-2,8,61624
1374424473,5805,198.1699981689453000,19.6907997131347660,36.6038017272949200,237.4682006835937500,98.4642028808593800,19.7169799804687500,29.8679695129394530,61,225,72,72,61,9783,2146959734,2147515190,2147264630,2147447012,2147086646,2146988123,2147682523,2147128777,1276,-1,8,12599
1374424528,5799,193.7500000000000000,19.7534008026123050,36.6082992553710940,236.3235015869140600,97.4128570556640600,19.7488899230957030,29.9080905914306640,63,225,71,73,61,9781,2146955520,2147516022,2147267328,2147442139,2147084333,2146991734,2147685805,2147128932,1018,-2,8,49001
1374424583,5805,189.3899993896484400,19.7924003601074220,36.6115989685058600,235.8694000244140600,96.0224304199218800,19.7910900115966800,29.9113693237304700,64,222,72,71,61,9779,2146954514,2147513874,2147266578,2147443026,2147089435,2146991524,2147692452,2147130240,617,-1,8,54824
1374424663,5806,183.4100036621093800,19.8616008758544920,36.6156005859375000,235.9429016113281200,93.7482376098632800,19.8601303100585940,29.8782405853271500,65,227,72,72,61,9770,2146958884,2147515584,2147264109,2147442898,2147090496,2146996324,2147704457,2147126317,263,-2,8,45758
1374424718,5804,179.6900024414062500,19.9312000274658200,36.6217994689941400,236.0832977294922000,91.3488464355468800,19.9329891204834000,29.8406105041503900,65,226,72,71,61,9778,2146957248,2147516480,2147268150,2147445129,2147090669,2147001334,2147707638,2147130176,3397,-2,8,51461
1374424773,5805,176.0299987792968800,20.0520000457763670,36.6305999755859400,235.5446014404297000,87.6381912231445300,20.0457096099853500,29.8177108764648440,67,226,72,72,61,9773,2146958070,2147515529,2147266989,2147443721,2147090861,2147007286,2147709266,2147132461,2875,-1,8,61980
1374424840,5804,171.7400054931640600,20.1867008209228500,36.6398010253906250,236.3513031005859400,83.5192871093750000,20.1708908081054700,29.7265205383300780,66,230,73,72,62,9768,2146960438,2147519149,2147270345,2147443931,2147091346,2147014637,2147718756,2147133723,2886,-2,8,51244
1374424895,5805,168.2100067138672000,20.2106990814209000,36.6417007446289060,237.8399963378906200,82.3506164550781200,20.2064208984375000,29.6418399810791000,67,230,71,72,62,9766,2146959588,2147513398,2147265654,2147442898,2147093686,2147019392,2147727451,2147133851,2882,-1,8,35967
1374424980,5805,163.4799957275390600,20.2866001129150400,36.6469001770019500,238.2926025390625000,79.8719711303711000,20.2817897796630860,29.5888404846191400,66,230,72,72,62,9765,2146957558,2147516882,2147267273,2147443163,2147099766,2147024182,2147743158,2147135195,3011,-1,9,29114
1374425071,5804,159.6199951171875000,20.3365001678466800,36.6497993469238300,238.2324066162109400,78.3150329589843800,20.3291397094726560,29.5713291168212900,67,236,73,71,61,9757,2146955364,2147517412,2147270948,2147441792,2147099181,2147035574,2147752530,2147137298,313,-1,8,50749
1374425174,5808,156.1100006103515600,20.4141006469726560,36.6537017822265600,235.9147949218750000,75.7535629272461000,20.4070701599121100,29.6467609405517580,68,236,73,73,61,9759,2146956397,2147519076,2147269485,2147441746,2147100873,2147046061,2147764059,2147134802,478,-1,8,11341
1374425314,5807,152.0800018310547000,20.5405006408691400,36.6581001281738300,235.8128051757812500,71.6437072753906200,20.5321598052978500,29.5985794067382800,70,236,74,72,60,9752,2146958985,2147516681,2147267254,2147440256,2147102098,2147056256,2147770587,2147135872,517,-1,8,54663
1374425453,5805,148.3399963378906200,20.7360992431640620,36.6585998535156250,236.4190979003906200,65.4387664794921900,20.7211399078369140,29.4903907775878900,73,242,73,75,61,9741,2146958253,2147519049,2147270765,2147439817,2147110564,2147065856,2147785508,2147137572,2459,-2,9,22533
1374425598,5804,143.5700073242187500,20.9433994293212900,36.6617012023925800,237.4035949707031200,58.3994293212890600,20.9357299804687500,29.3544197082519530,78,244,74,73,60,9728,2146957641,2147516982,2147272219,2147440950,2147120137,2147081097,2147809938,2147139638,1417,-2,9,21512
1374425677,5806,139.5399932861328000,21.1541004180908200,36.6654014587402340,236.1911926269531200,51.8900909423828100,21.1343402862548830,29.3275699615478500,83,242,73,73,60,9727,2146956443,2147518180,2147273124,2147435264,2147124233,2147098413,2147833700,2147142482,750,-2,8,2771
1374425756,5807,135.4600067138672000,21.2838001251220700,36.6669998168945300,233.1470947265625000,47.3950195312500000,21.2716102600097660,29.4129791259765620,81,244,75,73,60,9727,2146957769,2147516937,2147269732,2147434221,2147134994,2147121362,2147855451,2147141760,3530,-2,8,11250
1374425835,5805,131.5099945068359400,21.3841991424560550,36.6674003601074200,232.1864013671875000,43.2614593505859400,21.3979206085205080,29.4054908752441400,85,242,72,74,61,9714,2146956507,2147518208,2147273161,2147431826,2147149074,2147146779,2147891501,2147142125,2538,-2,9,64349
1374425917,5807,127.7699966430664000,21.5687999725341800,36.6478004455566400,231.2454986572265600,38.3288383483886700,21.5487499237060550,29.3874397277832030,86,242,73,75,61,9709,2146957595,2147522669,2147274432,2147432045,2147161097,2147178660,2147921673,2147148086,2650,-2,8,17699
1374426020,5802,124.2300033569336000,21.6599998474121100,36.6455993652343750,235.2530975341797000,35.2846794128418000,21.6418895721435550,29.1599102020263670,83,243,75,76,60,9712,2146960155,2147523492,2147275657,2147435702,2147178633,2147215488,2147962075,2147152118,2505,-1,9,41751
1374426183,5804,120.3700027465820300,21.7478008270263670,36.6400985717773440,233.1183929443359400,32.3056297302246100,21.7330799102783200,29.2219200134277340,86,243,75,75,61,9700,2146960210,2147523986,2147278144,2147431286,2147203053,2147262235,2148009636,2147156918,2487,-2,8,61975
1374426341,5804,116.0400009155273400,21.9283008575439450,36.6491012573242200,237.5603942871093800,26.2615795135498050,21.9182395935058600,28.9386596679687500,78,236,73,74,60,9716,2146960457,2147528100,2147278162,2147434422,2147249956,2147334930,2148090240,2147162761,1590,-2,8,15820
1374426480,5807,112.4100036621093800,22.3271999359130860,36.6897010803222660,246.0451049804687500,13.3937702178955080,22.3130607604980470,28.3958702087402340,73,237,73,75,58,9711,2146965010,2147528960,2147282587,2147432082,2147304109,2147422400,2148173147,2147169700,873,-2,8,57390
1374426625,5805,107.7600021362304700,22.5503997802734380,36.6601982116699200,249.6002960205078000,6.3318190574646000,22.5301094055175780,28.1532497406005860,74,241,74,75,59,9706,2146969545,2147532854,2147285933,2147429732,2147397732,2147570084,2148296045,2147181677,493,-1,8,14022
1374426716,5805,103.9300003051757800,22.6182994842529300,36.6353988647460940,245.6112060546875000,4.3227729797363280,22.5919094085693360,28.3019409179687500,77,242,72,74,59,9694,2146970761,2147536768,2147287250,2147428827,2147436388,2147615058,2148322870,2147187154,841,-1,9,7135
1374426819,5805,99.8300018310546900,22.8498001098632800,36.5999984741210940,244.2149047851562500,-4.0614628791809080,22.8500709533691400,28.2590503692626950,77,244,74,75,59,9701,2146978038,2147543177,2147299849,2147429494,2147616603,2147898889,2148608374,2147210605,636,-1,9,9975
1374426904,5804,96.5899963378906200,23.0548000335693360,36.6153984069824200,243.0121002197265600,-10.0809297561645500,23.0356597900390620,28.2374305725097660,73,243,74,76,58,9704,2146985737,2147555254,2147308992,2147430226,2147765257,2148120000,2148830390,2147232219,1199,-2,9,24901
1374426959,5804,93.9300003051757800,23.1448993682861330,36.6184005737304700,245.7178039550781200,-12.6106300354003900,23.1137199401855470,28.0869293212890620,73,243,74,75,58,9691,2146988269,2147560009,2147315620,2147427693,2147905216,2148329005,2149006893,2147248731,1568,-2,9,50767
1374427014,5809,91.5899963378906200,23.2957000732421880,36.5550003051757800,245.3426055908203000,-17.7862701416015620,23.2735500335693360,28.0392494201660160,77,245,75,77,58,9682,2146992585,2147566875,2147320740,2147427620,2148019501,2148479597,2149149302,2147261138,1792,-2,9,20207
1374427069,5804,90.1900024414062500,23.3978996276855470,36.5447998046875000,244.3368988037109400,-21.0360698699951170,23.3740005493164060,28.0431709289550780,77,247,75,77,59,9681,2146995437,2147571721,2147322953,2147427456,2148099318,2148601078,2149256073,2147272338,2045,-2,9,57272
1374427226,5801,88.1200027465820300,23.5394001007080080,36.5373001098632800,241.8775024414062500,-26.1337299346923830,23.5316791534423830,28.0886802673339840,74,243,73,77,59,9691,2147007277,2147581568,2147339748,2147426093,2148336292,2148907922,2149520969,2147295296,2438,-1,9,64435
1374427293,5810,85.9899978637695300,23.7010002136230470,36.5161018371582000,240.7628021240234400,-31.0087203979492200,23.6826400756835940,28.0777893066406250,73,244,73,72,58,9687,2147009874,2147589970,2147344649,2147427053,2148516562,2149160164,2149720082,2147314550,2559,-1,8,47889
1374427360,5804,83.9400024414062500,23.7868995666503900,36.4953994750976560,241.0305938720703000,-33.8916893005371100,23.7719898223876950,28.0302906036376950,74,244,73,76,59,9679,2147022180,2147599844,2147354075,2147426541,2148723346,2149426157,2149945728,2147336265,3402,-1,9,43124
1374427427,5805,82.2900009155273400,24.0928993225097660,36.4805984497070300,242.0149993896484400,-42.4836311340332000,24.0385799407959000,27.8806190490722660,74,244,75,76,58,9688,2147028580,2147606235,2147364187,2147427776,2148869641,2149611949,2150101659,2147353755,147,-1,9,26610
1374427572,5807,80.2399978637695300,24.2808990478515620,36.4691009521484400,241.9795989990234400,-49.4845085144043000,24.2561798095703120,27.7959709167480470,74,245,73,76,57,9687,2147042121,2147621897,2147374116,2147426889,2149175341,2149990756,2150404489,2147382144,1967,-1,9,27809
1374427663,5808,78.3700027465820300,24.4442005157470700,36.4450988769531250,243.8585968017578000,-53.7212295532226560,24.3880290985107420,27.6614799499511720,72,243,73,76,58,9680,2147051785,2147631451,2147383277,2147424064,2149435977,2150319588,2150659209,2147404589,1654,-1,9,23602
1374427832,5800,75.7600021362304700,24.5405006408691400,36.4350013732910160,246.4776000976562500,-58.2715797424316400,24.5297698974609380,27.4923591613769530,70,244,74,75,59,9683,2147069869,2147653403,2147402806,2147423232,2149848493,2150818898,2151057737,2147445659,2810,-2,9,17888
1374427887,5803,74.0299987792968800,24.6259002685546880,36.4173011779785160,247.0001068115234400,-60.8321609497070300,24.6096000671386720,27.4387397766113280,71,251,73,77,57,9686,2147080457,2147667730,2147413476,2147426249,2150187995,2151213787,2151356068,2147473572,2497,-1,9,61509
1374427954,5803,72.2200012207031200,24.9379005432128900,36.3699989318847660,247.7306060791015600,-69.8681488037109400,24.8917007446289060,27.2972393035888670,69,243,73,76,58,9682,2147099181,2147681856,2147425371,2147425005,2150576036,2151670756,2151688969,2147507684,2469,-2,9,32214
1374428206,5804,70.6299972534179700,25.4496002197265620,36.2979011535644500,251.9075012207031200,-85.8736267089843800,25.3928909301757800,26.9270706176757800,68,243,74,74,57,9680,2147123392,2147704987,2147444873,2147422921,2151120841,2152274066,2152132708,2147552256,1483,-2,9,50511
1374428484,5807,68.4199981689453100,25.6415996551513670,36.2854995727539060,251.4523925781250000,-93.1554870605468800,25.6215591430664060,26.8580493927001950,68,244,73,74,57,9686,2147145270,2147730441,2147467794,2147424758,2151757028,2153018770,2152704859,2147608274,1005,-1,9,50709
1374428749,5804,66.3799972534179700,25.9011001586914060,36.2879981994628900,258.0837097167969000,-101.9261016845703100,25.8975696563720700,26.4809703826904300,68,243,73,76,58,9683,2147181933,2147764854,2147494637,2147421632,2152626642,2153992795,2153407131,2147681014,1346,-1,9,5481
1374428828,5807,63.9799995422363300,25.9118003845214840,36.2755012512207000,256.8870849609375000,-102.3041992187500000,25.9094791412353500,26.5247097015380860,67,242,74,76,57,9677,2147226806,2147805101,2147528987,2147421787,2153670080,2155136384,2154206299,2147763949,1741,-1,9,25248
1374428895,5806,62.0499992370605500,26.1793003082275400,36.2239990234375000,257.2821960449219000,-110.2268981933593800,26.1593704223632800,26.4137897491455080,67,242,73,75,57,9682,2147258733,2147841773,2147552484,2147425490,2154492955,2155986468,2154769115,2147824594,1631,-2,9,52463
1374429051,5807,60.6199989318847660,26.8127002716064450,36.1688003540039060,260.1961059570312500,-129.2234039306640600,26.7607192993164060,26.0702304840087900,66,240,74,76,57,9674,2147305746,2147879579,2147584173,2147427337,2155559917,2157075501,2155486619,2147902976,1798,-2,9,1981
1374429340,5804,57.8600006103515600,27.1364002227783200,36.1688003540039060,276.0422058105469000,-140.9118041992187500,27.1323204040527340,25.3256301879882800,64,238,71,75,56,9685,2147387062,2147954084,2147639131,2147428818,2157320649,2158930230,2156792128,2148050249,1083,-2,9,36418
1374429407,5808,56.5699996948242200,27.2476005554199220,36.1479988098144500,273.6480102539062500,-143.7171936035156200,27.2217006683349600,25.3814792633056640,65,237,73,76,56,9684,2147419236,2147985417,2147666176,2147428233,2158140992,2159727616,2157306285,2148106523,368,-1,8,61285
1374429747,5805,50.9399986267089840,27.4771995544433600,36.1534004211425800,280.2413940429687500,-151.5404968261718800,27.4713306427001950,25.0473995208740230,65,238,72,75,55,9669,2147648164,2148183753,2147807762,2147437568,2163515190,2165162953,2160917860,2148520283,1221,-1,9,43823
1374429781,5804,49.8400001525878900,27.5977001190185550,36.1666984558105500,277.4433898925781000,-155.1703033447265600,27.5873508453369140,25.1067905426025400,64,239,71,76,55,9668,2147684461,2148218916,2147830281,2147438646,2164424118,2166035821,2161478619,2148592182,1189,-1,9,52080
1374429953,5805,47.5499992370605500,27.8491992950439450,36.1879997253418000,287.2817993164062500,-163.4918975830078000,27.8537998199462900,24.6569404602050780,63,237,72,75,54,9677,2147822473,2148328877,2147913124,2147449801,2167850925,2169400146,2163588443,2148832521,1195,-1,8,45137
1374430010,5803,45.5900001525878900,27.8969001770019530,36.1791000366210940,283.9336853027344000,-164.7996978759765600,27.8957405090332030,24.7600002288818360,62,238,72,77,56,9666,2147923291,2148427885,2147972516,2147453705,2170502875,2171958381,2165193197,2149039451,1251,-1,9,33586
1374430055,5808,43.6500015258789060,27.9451007843017580,36.1721992492675800,283.4950866699219000,-166.3226013183593800,27.9445991516113280,24.7578697204589840,62,235,71,74,54,9651,2148027776,2148511067,2148038290,2147461403,2173099684,2174440356,2166766116,2149258678,1068,-2,8,35839
1374430100,5805,41.7000007629394500,27.9696998596191400,36.1632003784179700,284.9330139160156000,-167.1717987060547000,27.9718494415283200,24.6969394683837900,61,233,71,76,53,9675,2148134043,2148605586,2148113545,2147473060,2175845504,2177090715,2168452361,2149495085,599,-2,8,28649
1374430145,5806,39.8100013732910160,28.0734996795654300,36.1517982482910160,287.0964965820312500,-170.5162048339843800,28.0792407989501950,24.5817604064941400,63,236,71,76,54,9666,2148233910,2148688210,2148179446,2147481334,2178463131,2179586358,2170038372,2149732873,389,-1,9,8179
1374430202,5808,37.8100013732910160,28.2283000946044920,36.1278991699218750,292.9081115722656000,-175.8397979736328000,28.2504291534423830,24.3185501098632800,62,234,71,78,55,9666,2148330212,2148770230,2148238774,2147493760,2181045915,2182009298,2171585014,2149984859,3423,-1,8,64949
1374430312,5806,35.9000015258789060,28.4920005798339840,36.0778007507324200,302.3659057617187500,-183.4194030761718800,28.4946594238281250,23.9130592346191400,62,240,70,76,56,9669,2148461046,2148885668,2148312128,2147497865,2184871076,2185696932,2173916324,2150327524,1450,-1,9,62766
1374430429,5806,33.9199981689453100,28.5300006866455080,36.0658988952636700,318.7208862304687500,-184.6349029541015600,28.5338802337646500,23.3750095367431640,62,247,70,76,56,9673,2148610715,2149015478,2148415515,2147518473,2188963190,2189580635,2176423396,2150755282,950,-1,8,25395